When you browse on this site, cookies collect data to enhance your experience and personalize the content and advertising you see.
Visit our Privacy Policy to learn more. By continuing to use the site, you agree to this use of cookies and data.
  • In Hungary
  • List of Countries
  • For 7 days
  • Water Temperature
  • Weather Map
  • News
  • Weather Widgets
  • user-avatar
    Login

    Hourly Weather Zastavna

    Today, 30 March, Monday

    Time Temperature Precipitation Wind Pressure Humidity
    00:00 +5°C° 0 mm 3 mps 736 mmHg 98%
    01:00 +5°C° 0 mm 3 mps 736 mmHg 99%
    02:00 +6°C° 0 mm 5 mps 737 mmHg 69%
    03:00 +4°C° 0 mm 6 mps 737 mmHg 88%
    04:00 +3°C° 0 mm 6 mps 737 mmHg 94%
    05:00 +3°C° 0 mm 5 mps 738 mmHg 98%
    06:00 +3°C° 0 mm 5 mps 738 mmHg 98%
    07:00 +4°C° 0 mm 4 mps 739 mmHg 98%
    08:00 +4°C° 0.3 mm 4 mps 739 mmHg 100%
    09:00 +3°C° 0.2 mm 5 mps 739 mmHg 98%
    10:00 +2°C° 0 mm 6 mps 740 mmHg 98%
    11:00 +2°C° 0 mm 7 mps 740 mmHg 96%
    12:00 +3°C° 0 mm 7 mps 740 mmHg 93%
    13:00 +4°C° 0 mm 7 mps 740 mmHg 93%
    14:00 +4°C° 0 mm 7 mps 740 mmHg 89%
    15:00 +3°C° 0.3 mm 6 mps 740 mmHg 91%
    16:00 +2°C° 0.4 mm 6 mps 740 mmHg 96%
    17:00 +2°C° 0.2 mm 7 mps 741 mmHg 88%
    18:00 +1°C° 0 mm 6 mps 741 mmHg 86%
    19:00 0°C° 0 mm 5 mps 741 mmHg 87%
    20:00 0°C° 0 mm 4 mps 742 mmHg 91%
    21:00 -1°C° 0.3 mm 6 mps 742 mmHg 93%
    22:00 -1°C° 0 mm 5 mps 742 mmHg 89%
    23:00 -1°C° 0 mm 5 mps 743 mmHg 91%

    Tomorrow, 31 March, Tuesday

    Time Temperature Precipitation Wind Pressure Humidity
    00:00 -2°C° 0 mm 5 mps 743 mmHg 91%
    01:00 -3°C° 0 mm 4 mps 743 mmHg 91%
    02:00 -3°C° 0 mm 4 mps 743 mmHg 90%
    03:00 -3°C° 0 mm 4 mps 743 mmHg 90%
    04:00 -4°C° 0 mm 5 mps 744 mmHg 92%
    05:00 -3°C° 0 mm 4 mps 744 mmHg 92%
    06:00 -3°C° 0 mm 4 mps 744 mmHg 93%
    07:00 -4°C° 0 mm 5 mps 744 mmHg 91%
    08:00 -2°C° 0 mm 5 mps 744 mmHg 89%
    09:00 -2°C° 0 mm 6 mps 745 mmHg 92%
    10:00 0°C° 0 mm 4 mps 745 mmHg 93%
    11:00 +1°C° 0.6 mm 6 mps 745 mmHg 83%
    12:00 +1°C° 1.2 mm 6 mps 745 mmHg 89%
    13:00 +2°C° 0.2 mm 6 mps 745 mmHg 76%
    14:00 +2°C° 0 mm 6 mps 746 mmHg 74%
    15:00 +2°C° 0 mm 6 mps 746 mmHg 68%
    16:00 +2°C° 0 mm 5 mps 745 mmHg 59%
    17:00 +2°C° 0 mm 5 mps 746 mmHg 61%
    18:00 +1°C° 0 mm 5 mps 746 mmHg 74%
    19:00 +2°C° 0 mm 2 mps 746 mmHg 88%
    20:00 +1°C° 0 mm 2 mps 747 mmHg 87%
    21:00 0°C° 0 mm 3 mps 747 mmHg 90%
    22:00 -1°C° 0 mm 2 mps 747 mmHg 95%
    23:00 -1°C° 0 mm 2 mps 747 mmHg 97%

    Day after tomorrow, 1 April, Wednesday

    Time Temperature Precipitation Wind Pressure Humidity
    00:00 -1°C° 0 mm 2 mps 747 mmHg 98%
    01:00 0°C° 0 mm 1 mps 747 mmHg 99%
    02:00 0°C° 0 mm 1 mps 747 mmHg 100%
    03:00 0°C° 0 mm 1 mps 747 mmHg 100%
    04:00 0°C° 0 mm 1 mps 747 mmHg 99%
    05:00 0°C° 0 mm 1 mps 747 mmHg 98%
    06:00 -1°C° 0 mm 0 mps 747 mmHg 98%
    07:00 -1°C° 0 mm 0 mps 748 mmHg 97%
    08:00 +1°C° 0 mm 1 mps 748 mmHg 95%
    09:00 +2°C° 0 mm 2 mps 747 mmHg 90%
    10:00 +3°C° 0 mm 2 mps 747 mmHg 82%
    11:00 +4°C° 0 mm 2 mps 747 mmHg 72%
    12:00 +5°C° 0 mm 2 mps 747 mmHg 67%
    13:00 +6°C° 0 mm 2 mps 747 mmHg 58%
    14:00 +6°C° 0 mm 2 mps 746 mmHg 57%
    15:00 +7°C° 0 mm 2 mps 746 mmHg 56%
    16:00 +7°C° 0 mm 3 mps 745 mmHg 53%
    17:00 +6°C° 0 mm 2 mps 745 mmHg 54%
    18:00 +6°C° 0 mm 2 mps 744 mmHg 51%
    19:00 +6°C° 0 mm 1 mps 744 mmHg 60%
    20:00 +3°C° 0 mm 2 mps 744 mmHg 79%
    21:00 +1°C° 0 mm 4 mps 744 mmHg 84%
    22:00 0°C° 0 mm 4 mps 743 mmHg 87%
    23:00 0°C° 0 mm 3 mps 743 mmHg 90%

    2 April, Thursday

    Time Temperature Precipitation Wind Pressure Humidity
    00:00 0°C° 0 mm 3 mps 743 mmHg 91%
    01:00 +1°C° 0 mm 2 mps 743 mmHg 90%
    02:00 -1°C° 0 mm 2 mps 743 mmHg 93%
    03:00 -1°C° 0 mm 2 mps 742 mmHg 94%
    04:00 +1°C° 0 mm 1 mps 742 mmHg 92%
    05:00 -1°C° 0 mm 2 mps 742 mmHg 92%
    06:00 -1°C° 0 mm 2 mps 741 mmHg 88%
    07:00 +2°C° 0 mm 1 mps 742 mmHg 87%
    08:00 +3°C° 0 mm 1 mps 742 mmHg 88%
    09:00 +4°C° 0 mm 2 mps 742 mmHg 78%
    10:00 +6°C° 0 mm 2 mps 742 mmHg 64%
    11:00 +8°C° 0 mm 2 mps 742 mmHg 60%
    12:00 +8°C° 0 mm 2 mps 742 mmHg 56%
    13:00 +9°C° 0 mm 2 mps 741 mmHg 54%
    14:00 +10°C° 0 mm 3 mps 741 mmHg 58%
    15:00 +9°C° 0 mm 3 mps 741 mmHg 67%
    16:00 +8°C° 0.3 mm 3 mps 740 mmHg 81%
    17:00 +9°C° 0 mm 2 mps 740 mmHg 70%
    18:00 +9°C° 0 mm 1 mps 740 mmHg 74%
    19:00 +8°C° 0 mm 1 mps 740 mmHg 83%
    20:00 +8°C° 0 mm 1 mps 740 mmHg 82%
    21:00 +7°C° 0 mm 1 mps 740 mmHg 84%
    22:00 +5°C° 0 mm 2 mps 740 mmHg 85%
    23:00 +4°C° 0 mm 2 mps 740 mmHg 87%

    3 April, Friday

    Time Temperature Precipitation Wind Pressure Humidity
    00:00 +4°C° 0 mm 2 mps 740 mmHg 92%
    01:00 +4°C° 0 mm 1 mps 739 mmHg 90%
    02:00 +3°C° 0 mm 2 mps 739 mmHg 89%
    03:00 +2°C° 0 mm 2 mps 739 mmHg 88%
    04:00 +2°C° 0 mm 2 mps 739 mmHg 87%
    05:00 +1°C° 0 mm 2 mps 739 mmHg 89%
    06:00 +1°C° 0 mm 2 mps 738 mmHg 88%
    07:00 +1°C° 0 mm 2 mps 739 mmHg 89%
    08:00 +4°C° 0 mm 1 mps 739 mmHg 88%
    09:00 +6°C° 0 mm 2 mps 739 mmHg 80%
    10:00 +8°C° 0 mm 3 mps 739 mmHg 74%
    11:00 +9°C° 0 mm 3 mps 739 mmHg 68%
    12:00 +10°C° 0 mm 3 mps 738 mmHg 66%
    13:00 +11°C° 0 mm 3 mps 738 mmHg 65%
    14:00 +12°C° 0 mm 3 mps 738 mmHg 65%
    15:00 +12°C° 0 mm 5 mps 738 mmHg 62%
    16:00 +12°C° 0 mm 5 mps 737 mmHg 65%
    17:00 +10°C° 0 mm 6 mps 737 mmHg 65%
    18:00 +9°C° 0 mm 5 mps 737 mmHg 71%
    19:00 +8°C° 0 mm 5 mps 738 mmHg 78%
    20:00 +8°C° 0 mm 2 mps 738 mmHg 87%
    21:00 +5°C° 0 mm 5 mps 739 mmHg 97%
    22:00 +6°C° 0.7 mm 2 mps 739 mmHg 96%
    23:00 +5°C° 0 mm 4 mps 740 mmHg 92%

    4 April, Saturday

    Time Temperature Precipitation Wind Pressure Humidity
    00:00 +5°C° 0 mm 4 mps 741 mmHg 92%
    01:00 +4°C° 0 mm 4 mps 741 mmHg 92%
    02:00 +3°C° 0 mm 4 mps 742 mmHg 95%
    03:00 +1°C° 0 mm 4 mps 742 mmHg 97%
    04:00 +1°C° 0 mm 3 mps 742 mmHg 98%
    05:00 +1°C° 0 mm 3 mps 743 mmHg 98%
    06:00 -2°C° 0 mm 6 mps 744 mmHg 98%
    07:00 -1°C° 0 mm 6 mps 745 mmHg 96%
    08:00 -1°C° 0 mm 6 mps 746 mmHg 95%
    09:00 0°C° 0 mm 7 mps 747 mmHg 89%
    10:00 +2°C° 0 mm 7 mps 747 mmHg 86%
    11:00 +2°C° 0 mm 6 mps 748 mmHg 82%
    12:00 +3°C° 0 mm 6 mps 748 mmHg 76%
    13:00 +3°C° 0.1 mm 7 mps 749 mmHg 84%
    14:00 +4°C° 0.2 mm 6 mps 749 mmHg 78%
    15:00 +4°C° 0.3 mm 6 mps 750 mmHg 82%
    16:00 +4°C° 0 mm 6 mps 750 mmHg 72%
    17:00 +4°C° 0.1 mm 4 mps 750 mmHg 80%
    18:00 +4°C° 0 mm 3 mps 750 mmHg 81%
    19:00 +3°C° 0 mm 3 mps 751 mmHg 80%
    20:00 +1°C° 0 mm 4 mps 752 mmHg 89%
    21:00 +2°C° 0 mm 3 mps 752 mmHg 91%
    22:00 +1°C° 0 mm 3 mps 753 mmHg 95%
    23:00 0°C° 0 mm 3 mps 753 mmHg 97%
    Show more